www.pogodaiklimat.ru

Погода и климат >> Архив погоды >> Китай >> Dalian


ПОГОДА в Dalian

  • Прогноз погоды в Dalian
  • Монитор погоды в Dalian
  • Климат города

АРХИВ ПОГОДЫ в Dalian

Время (UTC), дата Ветер
(напр.,м/с)
 
Видим.   Явления Облачность Т
(С)
Тd
(С)
f
(%)
Тe
(С)
Тes
(С)
Комфортность P
(гПа)
Po
(гПа)
Тmin
(С)
Tmax
(С)
R
(мм)
R24
(мм)
S
(см)
03 6.11 С 4 30 км 9/9
[]
+8.4 -4.7 39 +6 +6 1030.2 1030.0
06 6.11 С 6 30 км 9/9
[]
+8.7 -4.1 40 +5 +6 1028.6 1033.2 +4.9
09 6.11 С 7 30 км 10/10
[]
+6.9 -2.8 50 +3 +3 1028.9 1029.0
12 6.11 С 6 30 км 10/10
[]
+6.5 -3.4 49 +3 +3 1029.4 1017.8
15 6.11 С 5 30 км н/о +6.4 -7.2 37 +3 +3 1029.3 1013.6
18 6.11 С 4 30 км н/о +6.1 -8.2 35 +3 +3 1028.4 1016.9 +9.2
21 6.11 С 3 30 км ?/? +5.1 -8.4 37 +3 +3 1028.0 1028.0
00 7.11 С 5 30 км 10/10
[]
+5.8 -4.9 46 +2 +2 1028.3 1016.7
03 7.11 С 3 30 км 9/9
[]
+7.5 -4.9 41 +5 +6 1027.5 1028.0
06 7.11 С 2 30 км 9/9
[]
+9.7 -3.9 38 +9 +9 1025.3 1030.5 +4.9
09 7.11 С 2 30 км 8/8
[]
+7.9 -4.5 41 +7 +7 1024.5 1025.0
12 7.11 С 2 30 км 3/3
[]
+7.3 -3.0 48 +6 +6 1023.9 1012.4
15 7.11 С 1 30 км ?/? +6.7 -4.4 45 +6 +6 1023.0 1007.5
18 7.11 С 1 30 км ?/? +7.0 -1.2 56 +7 +7 1021.5 1010.1 +10.1
21 7.11 С 2 30 км н/о +7.4 -4.0 44 +6 +6 1019.6 1020.0
00 8.11 С 3 30 км 9/9
[]
+8.3 -3.9 42 +6 +6 1018.0 1006.6
03 8.11 С 2 29 км слабый дождь 10/10
[]
+8.9 -2.4 45 +8 +8 1016.0 1000.5
06 8.11 С 4 26 км слабый дождь 10/10
[]
+7.9 +0.6 60 +5 +5 1013.5 1002.2 +6.5 0.6
09 8.11 С 2 30 км слабый дождь 10/10
[]
+7.6 +3.3 74 +6 +6 1012.0 1012.0
12 8.11 С 2 11 км {дождь} 8/8
[]
+6.7 +4.4 85 +4 +4 1012.0 1000.7 0.2
15 8.11 штиль 0 8000 м ?/? +7.6 +5.7 88 +7 +7 1013.7 997.7
18 8.11 СЗ 2 9000 м н/о +9.2 +3.4 67 +8 +8 1013.7 1002.4 +9.4
21 8.11 З 2 11 км ?/? +9.6 +5.0 73 +8 +8 1014.4 1014.0
00 9.11 З 4 7000 м 9/9
[]
+10.8 +6.2 73 +8 +9 1016.6 1005.3
03 9.11 З 5 7000 м мгла ясно +13.9 +6.3 60 +12 +15 1016.8 1017.0
06 9.11 З 3 н/о мгла 9/9 600 м
[]
+13.2 +7.0 66 +12 +12 1016.3 1021.0 +6.7
09 9.11 С 1 5000 м дымка ясно +11.1 +6.4 73 +11 +11 1017.9 1018.0
12 9.11 ЮЗ 1 3900 м дымка ясно +10.1 +7.5 84 +10 +10 1020.1 1008.8
15 9.11 Ю 1 6000 м дымка ?/? +9.2 +5.6 78 +9 +9 1021.4 1021.0
18 9.11 С 3 11 км н/о +8.6 +1.7 62 +6 +6 1023.1 1011.8 +14.2
21 9.11 С 3 26 км н/о +6.5 -0.5 61 +4 +4 1024.8 1025.0
00 10.11 С 3 30 км ясно +6.6 -4.2 46 +4 +5 1027.0 1015.5
03 10.11 С 4 30 км ясно +9.9 -6.0 32 +8 +12 1027.5 1011.4
06 10.11 С 2 30 км 9/9
[]
+11.4 -7.9 25 +11 +11 1025.8 1014.4 +5.8
09 10.11 С 1 30 км ясно +8.9 -6.1 34 +9 +9 1025.8 1026.0
12 10.11 С 1 30 км ясно +7.9 -4.9 40 +8 +8 1025.9 1014.4
15 10.11 С 1 30 км н/о +7.2 -8.4 32 +7 +7 1025.4 1025.0
18 10.11 С 2 30 км ?/? +7.2 -6.2 38 +6 +6 1024.5 1028.5 +11.8
21 10.11 С 3 30 км ?/? +7.6 -5.1 40 +6 +6 1025.2 1025.0
00 11.11 штиль 0 27 км слабый ливневой дождь 10/10 1000 м
[]
+6.0 +0.3 67 +5 +5 1026.1 1014.6 0.3
03 11.11 штиль 0 30 км слабый ливневой дождь 9/9 1000 м
[]
+8.4 +1.8 63 +8 +9 1024.9 1025.0
06 11.11 С 2 30 км {ливн. осадки} 9/9 1000 м
[]
+10.0 +1.6 56 +9 +9 1023.0 1027.6 +5.9 0.2
09 11.11 Ю 1 30 км 9/9
[]
+8.7 +3.3 69 +8 +8 1023.1 1023.0
12 11.11 Ю 1 24 км 9/9 1000 м
[]
+8.3 +4.3 76 +8 +8 1023.5 1012.0
15 11.11 ЮЗ 2 16 км ?/? +8.4 +5.5 82 +7 +7 1023.5 1008.1
18 11.11 З 1 19 км н/о +8.8 +4.0 72 +8 +8 1023.1 1011.7 +10.3
21 11.11 З 1 11 км н/о +8.9 +4.1 72 +8 +8 1022.5 1023.0
00 12.11 штиль 0 9000 м ясно +9.0 +5.0 76 +8 +9 1023.7 1012.3
03 12.11 В 1 9000 м ясно +13.2 +5.4 59 +14 +20 1023.1 1023.0
06 12.11 Ю 2 10 км 9/9 1000 м
[]
+12.8 +6.4 65 +12 +13 1021.6 1026.2 +7.6
09 12.11 З 1 7000 м мгла {ливн. осадки} 3/3 300 м
[]
+11.1 +4.8 65 +11 +11 1021.7 1022.0
12 12.11 З 1 6000 м мгла {ливн. осадки} ясно +9.8 +4.6 70 +10 +10 1022.2 1010.8 0.0
15 12.11 З 1 н/о дымка н/о +9.3 +6.0 80 +9 +9 1022.1 1022.0
18 12.11 З 1 6000 м дымка н/о +8.9 +6.0 82 +8 +8 1021.8 1010.5 +13.6
21 12.11 штиль 0 6000 м дымка ?/? +8.0 +5.8 86 +7 +7 1022.0 1022.0
00 13.11 штиль 0 н/о дымка ясно +8.3 +5.9 85 +7 +8 1023.2 1011.8

 

Местоположение метеостанции Dalian (Китай): широта 38.90 долгота 121.63 высота над уровнем моря 97 м.

В архиве по умолчанию представлена погода в Dalian за последнюю неделю. Архивные данные за месяц целиком и за предыдущие месяцы, начиная с января 2011 года, Вы можете получить, выбрав интересующий диапазон дат из раскрывающегося списка и нажав кнопку "Ввод!".


*Определитесь, кто Вы:
робот инопланетянин человек

Внимание! Время в таблицах - всемирное. Для получения местного времени необходимо прибавить поправку, которая в Dalian равна 8 ч.

Смотрите также архив погоды в соседних городах и на ближайших метеорологических станциях:

Погода в Chang Dao (Китай) (134 км)
Погода в Longkou (Китай) (183 км)
Погода в Chengshantou (Китай) (190 км)
Погода в Yingkou (Китай) (203 км)
Погода в Haiyang (Китай) (240 км)
Погода в Leting (Китай) (243 км)
Погода в Jinzhou (Китай) (252 км)
Погода в Dandong (Китай) (265 км)
Погода в Sinuiju (КНДР) (271 км)
Погода в Baengnyeongdo (Корея) (281 км)

Пояснения к столбцам:

Ветер - указаны скорость ветра в м/с - средняя за 10 мин, порывы в срок и между сроками (в фигурных скобках) и направление, откуда дует ветер: С - северный, СВ - северо-восточный, В - восточный, ЮВ - юго-восточный, Ю - южный, ЮЗ - юго-западный, З - западный, СЗ - северо-западный.
Видимость - горизонтальная дальность видимости в метрах или километрах. При видимости от 1 до 10 км при отсутствии осадков обычно наблюдается дымка, при ухудшении видимости до 1 км и менее - туман. В сухую погоду видимость может ухудшаться дымом, пылью или мглою.
Явления - указаны атмосферные явления, наблюдавшиеся в срок или в последний час перед сроком; фигурными скобками обозначены явления, наблюдавшиеся между сроками (за 1-3 часа до срока); квадратными скобками обозначены град или гололедные отложения с указанием их диаметра в мм.
Облачность - указаны через наклонную черту общая и нижняя облачность в баллах и высота нижней границы облаков в метрах; квадратными скобками обозначены формы облаков: Ci - перистые, Cs - перисто-слоистые, Cc - перисто-кучевые, Ac - высококучевые, As - высокослоистые, Sc - слоисто-кучевые, Ns - слоисто-дождевые, Cu - кучевые, Cb - кучево-дождевые. Подробнее классификацию облаков см. в Атласе облаков (PDF).
T - Температура воздуха - температура, измеренная на высоте 2 м над землей.
Td - Температура точки росы - температура, при понижении до которой содержащийся в воздухе водяной пар достигнет насыщения.
f - Относительная влажность воздуха - влажноcть воздуха, измеренная на высоте 2 м над землей.
Te - Эффективная температура - температура, которую ощущает одетый по сезону человек в тени. Характеристика душности погоды. При расчете учитывается влияние влажности воздуха и скорости ветра на теплоощущения человека.
Tes - Эффективная температура на солнце - температура, которую ощущает человек, с поправкой на солнечный нагрев. Характеристика знойности погоды. Зависит от высоты солнца над горизонтом, облачности и скорости ветра. Ночью, в пасмурную погоду, а также при ветре 12 м/с и более поправка равна нулю.
P - Атмосферное давление - приведенное к уровню моря атмосферное давление.
Po - Атмосферное давление - измеренное на уровне метеостанции атмосферное давление.
Tmin - Минимальная температура - минимум температуры воздуха на высоте 2 м над землей.
Tmax - Максимальная температура - максимум температуры воздуха на высоте 2 м над землей.
R - Количество осадков - Количество выпавших осадков за период времени, мм. При наведении курсора мыши на число - период времени, за который выпало указанное количество осадков.
R24 - Количество осадков - Количество выпавших осадков за 24 часа, мм.
S - Снежный покров - Высота снежного покрова, см. При наведении курсора мыши на число - состояние снежного покрова и степень покрытия местности в баллах.